Port Huron, MI

11:00 AM EDT on April 28, 2017 (GMT -0400)
Saint Clair County International

Weather History for KPHN - March, 2013

Change the Weather History Date:

Tuesday, March 5, 2013

  Actual Average (KMTC) Record (KMTC)
Temperature  
Mean Temperature 25 °F -  
Max Temperature 33 °F 40 °F 68 °F (2004)
Min Temperature 17 °F 25 °F 1 °F (2015)
Degree Days  
Heating Degree Days 40    
Moisture  
Dew Point 22 °F    
Average Humidity 80    
Maximum Humidity 93    
Minimum Humidity 65    
Precipitation  
Precipitation 0.00 in - - ()
Sea Level Pressure  
Sea Level Pressure 30.00 in    
Wind  
Wind Speed 5 mph (NE)    
Max Wind Speed 17 mph    
Max Gust Speed 21 mph    
Visibility 10 miles    
Events      
Averages and records for this station are not official NWS values.
T = Trace of Precipitation, MM = Missing Value Source: NWS Daily Summary

Daily Weather History Graph

Daily Weather History Graph

Search for Another Location

Airport or City:

Trip Planner

Search our weather history database for the weather conditions in past years. The results will help you decide how hot, cold, wet, or windy it might be!

Date:

Astronomy

Mar. 05, 2013 Rise Set
Actual Time 6:58 AM EST 6:24 PM EST
Civil Twilight 6:30 AM EST 6:53 PM EST
Nautical Twilight 5:57 AM EST 7:25 PM EST
Astronomical Twilight 5:24 AM EST 7:58 PM EST
Moon 2:16 AM EST (3/5) 11:56 AM EST (3/5)
Length of Visible Light 12h 22m
Length of Day
11h 25m
Last Quarter, 41% of the Moon is Illuminated
Mar 5
Last Quarter
Mar 11
New
Mar 19
First Quarter
Mar 27
Full
Apr 3
Last Quarter

Hourly Weather History & Observations

Time (EST) Temp. Windchill Dew Point Humidity Pressure Visibility Wind Dir Wind Speed Gust Speed Precip Events Conditions
12:19 AM 17.6 °F - 15.8 °F 93% 30.13 in 10.0 mi Calm Calm - N/A   Overcast
12:39 AM 19.4 °F - 17.6 °F 93% 30.13 in 10.0 mi Calm Calm - N/A   Overcast
12:59 AM 21.2 °F - 17.6 °F 86% 30.14 in 10.0 mi Calm Calm - N/A   Overcast
1:39 AM 21.2 °F 16.4 °F 19.4 °F 93% 30.13 in 10.0 mi NW 3.5 mph - N/A   Overcast
1:59 AM 23.0 °F - 19.4 °F 86% 30.13 in 10.0 mi Calm Calm - N/A   Overcast
2:19 AM 23.0 °F - 19.4 °F 86% 30.13 in 10.0 mi Calm Calm - N/A   Overcast
2:39 AM 23.0 °F 18.4 °F 19.4 °F 86% 30.12 in 10.0 mi WNW 3.5 mph - N/A   Overcast
2:59 AM 23.0 °F - 19.4 °F 86% 30.12 in 10.0 mi Calm Calm - N/A   Overcast
3:19 AM 23.0 °F 18.4 °F 19.4 °F 86% 30.11 in 10.0 mi NW 3.5 mph - N/A   Overcast
3:59 AM 24.8 °F - 19.4 °F 80% 30.10 in 10.0 mi Calm Calm - N/A   Overcast
4:19 AM 24.8 °F - 19.4 °F 80% 30.10 in 10.0 mi Calm Calm - N/A   Overcast
4:39 AM 24.8 °F - 19.4 °F 80% 30.10 in 10.0 mi Calm Calm - N/A   Overcast
4:59 AM 24.8 °F - 19.4 °F 80% 30.10 in 10.0 mi Calm Calm - N/A   Scattered Clouds
5:19 AM 21.2 °F - 17.6 °F 86% 30.10 in 10.0 mi Calm Calm - N/A   Clear
5:39 AM 19.4 °F - 15.8 °F 86% 30.10 in 10.0 mi Calm Calm - N/A   Clear
5:59 AM 17.6 °F - 15.8 °F 93% 30.09 in 10.0 mi Calm Calm - N/A   Clear
6:19 AM 17.6 °F - 15.8 °F 93% 30.08 in 10.0 mi Calm Calm - N/A   Mostly Cloudy
6:39 AM 19.4 °F - 17.6 °F 93% 30.09 in 10.0 mi Calm Calm - N/A   Overcast
6:59 AM 21.2 °F - 19.4 °F 93% 30.08 in 10.0 mi Calm Calm - N/A   Overcast
7:19 AM 23.0 °F - 19.4 °F 86% 30.08 in 10.0 mi Calm Calm - N/A   Overcast
7:39 AM 24.8 °F 16.1 °F 21.2 °F 86% 30.08 in 10.0 mi ENE 8.1 mph - N/A   Overcast
7:59 AM 26.6 °F - 21.2 °F 80% 30.08 in 10.0 mi Calm Calm - N/A   Overcast
8:19 AM 28.4 °F 24.6 °F 21.2 °F 74% 30.08 in 10.0 mi East 3.5 mph - N/A   Mostly Cloudy
8:39 AM 28.4 °F 21.2 °F 23.0 °F 80% 30.08 in 10.0 mi East 6.9 mph - N/A   Mostly Cloudy
8:59 AM 28.4 °F 21.2 °F 21.2 °F 74% 30.07 in 10.0 mi East 6.9 mph - N/A   Overcast
9:19 AM 30.2 °F 21.3 °F 23.0 °F 75% 30.07 in 10.0 mi East 10.4 mph - N/A   Overcast
9:39 AM 32.0 °F 24.8 °F 23.0 °F 69% 30.07 in 10.0 mi ENE 8.1 mph - N/A   Overcast
9:59 AM 32.0 °F 24.2 °F 23.0 °F 69% 30.07 in 10.0 mi NE 9.2 mph - N/A   Overcast
10:19 AM 30.2 °F 24.3 °F 23.0 °F 75% 30.06 in 10.0 mi East 5.8 mph - N/A   Overcast
10:39 AM 32.0 °F 26.4 °F 23.0 °F 69% 30.06 in 10.0 mi ENE 5.8 mph - N/A   Overcast
10:59 AM 32.0 °F 24.8 °F 23.0 °F 69% 30.06 in 10.0 mi NNE 8.1 mph - N/A   Overcast
11:19 AM 32.0 °F 24.2 °F 23.0 °F 69% 30.05 in 10.0 mi East 9.2 mph - N/A   Overcast
11:39 AM 33.8 °F 26.4 °F 24.8 °F 70% 30.03 in 10.0 mi ENE 9.2 mph - N/A   Overcast
11:59 AM 32.0 °F 23.6 °F 23.0 °F 69% 30.03 in 10.0 mi NNE 10.4 mph - N/A   Overcast
12:18 PM 32.0 °F 23.0 °F 23.0 °F 69% 30.02 in 10.0 mi NE 11.5 mph - N/A   Overcast
12:39 PM 32.0 °F 25.6 °F 23.0 °F 69% 30.02 in 10.0 mi NE 6.9 mph - N/A   Overcast
12:59 PM 32.0 °F 27.5 °F 23.0 °F 69% 30.01 in 10.0 mi NNE 4.6 mph - N/A   Overcast
1:19 PM 33.8 °F 27.7 °F 23.0 °F 65% 29.99 in 10.0 mi ENE 6.9 mph - N/A   Mostly Cloudy
1:39 PM 33.8 °F 27.0 °F 23.0 °F 65% 29.99 in 10.0 mi NNE 8.1 mph - N/A   Mostly Cloudy
1:59 PM 32.0 °F 24.2 °F 24.8 °F 75% 29.98 in 10.0 mi NE 9.2 mph - N/A   Overcast
2:19 PM 33.8 °F 25.8 °F 24.8 °F 70% 29.97 in 10.0 mi NE 10.4 mph - N/A   Overcast
2:39 PM 33.8 °F 25.8 °F 24.8 °F 70% 29.96 in 10.0 mi NNE 10.4 mph - N/A   Overcast
2:59 PM 33.8 °F 24.3 °F 24.8 °F 70% 29.95 in 10.0 mi NNE 13.8 mph - N/A   Mostly Cloudy
3:19 PM 32.0 °F 22.1 °F 24.8 °F 75% 29.94 in 10.0 mi NNE 13.8 mph - N/A   Mostly Cloudy
3:39 PM 32.0 °F 22.5 °F 24.8 °F 75% 29.93 in 10.0 mi NNE 12.7 mph 18.4 mph N/A   Scattered Clouds
3:59 PM 32.0 °F 21.6 °F 24.8 °F 75% 29.93 in 10.0 mi NE 15.0 mph - N/A   Clear
4:19 PM 32.0 °F 24.2 °F 24.8 °F 75% 29.92 in 10.0 mi NNE 9.2 mph - N/A   Clear
4:39 PM 32.0 °F 22.1 °F 24.8 °F 75% 29.90 in 10.0 mi NE 13.8 mph - N/A   Clear
4:59 PM 32.0 °F 22.5 °F 24.8 °F 75% 29.90 in 10.0 mi NE 12.7 mph - N/A   Clear
5:19 PM 32.0 °F 20.8 °F 24.8 °F 75% 29.89 in 10.0 mi NE 17.3 mph - N/A   Clear
5:39 PM 30.2 °F 19.3 °F 24.8 °F 80% 29.88 in 10.0 mi NNE 15.0 mph 20.7 mph N/A   Clear
5:59 PM 30.2 °F 20.2 °F 24.8 °F 80% 29.89 in 10.0 mi NNE 12.7 mph 17.3 mph N/A   Clear
6:19 PM 28.4 °F 19.1 °F 24.8 °F 86% 29.89 in 10.0 mi NNE 10.4 mph - N/A   Clear
6:39 PM 28.4 °F 18.5 °F 24.8 °F 86% 29.90 in 10.0 mi NNE 11.5 mph 17.3 mph N/A   Clear
6:59 PM 28.4 °F 19.7 °F 24.8 °F 86% 29.91 in 10.0 mi NNE 9.2 mph - N/A   Clear
7:19 PM 28.4 °F 19.7 °F 24.8 °F 86% 29.90 in 10.0 mi North 9.2 mph - N/A   Clear
7:39 PM 28.4 °F 19.7 °F 24.8 °F 86% 29.90 in 10.0 mi NNE 9.2 mph - N/A   Clear
7:59 PM 28.4 °F 19.7 °F 23.0 °F 80% 29.90 in 10.0 mi NE 9.2 mph - N/A   Clear
8:19 PM 28.4 °F 19.1 °F 23.0 °F 80% 29.89 in 10.0 mi NNE 10.4 mph - N/A   Clear
8:39 PM 28.4 °F 18.5 °F 24.8 °F 86% 29.88 in 10.0 mi NNE 11.5 mph - N/A   Clear
8:59 PM 28.4 °F 18.5 °F 23.0 °F 80% 29.87 in 10.0 mi NNE 11.5 mph - N/A   Clear
9:19 PM 30.2 °F 21.3 °F 23.0 °F 75% 29.87 in 10.0 mi NNE 10.4 mph 16.1 mph N/A   Clear
9:39 PM 28.4 °F 19.1 °F 23.0 °F 80% 29.87 in 10.0 mi NE 10.4 mph - N/A   Clear
9:59 PM 28.4 °F 19.1 °F 23.0 °F 80% 29.87 in 10.0 mi NNE 10.4 mph - N/A   Clear
10:19 PM 28.4 °F 18.0 °F 23.0 °F 80% 29.87 in 10.0 mi NNE 12.7 mph 18.4 mph N/A   Clear
10:39 PM 28.4 °F 19.1 °F 23.0 °F 80% 29.87 in 10.0 mi NE 10.4 mph 20.7 mph N/A   Clear
10:59 PM 28.4 °F 18.0 °F 23.0 °F 80% 29.88 in 10.0 mi NNE 12.7 mph 18.4 mph N/A   Mostly Cloudy
11:19 PM 28.4 °F 19.1 °F 24.8 °F 86% 29.88 in 10.0 mi NNE 10.4 mph - N/A   Overcast
11:39 PM 28.4 °F 19.7 °F 24.8 °F 86% 29.87 in 10.0 mi NNE 9.2 mph - N/A   Overcast
11:59 PM 28.4 °F 20.4 °F 24.8 °F 86% 29.88 in 10.0 mi NNE 8.1 mph - N/A   Overcast